Weather History for KDUH - August, 2014

Change the Weather History Date:

Tuesday, August 19, 2014

  Actual Average (KTOL) Record (KTOL)
Temperature  
Mean Temperature 74 °F 72 °F  
Max Temperature 86 °F 82 °F 97 °F (1955)
Min Temperature 62 °F 61 °F 46 °F (1977)
Degree Days  
Heating Degree Days 0 0  
Month to date heating degree days 0  
Since 1 June heating degree days 38  
Since 1 July heating degree days 3  
Cooling Degree Days 9 7  
Month to date cooling degree days 142  
Year to date cooling degree days 630  
Since 1 June cooling degree days 577  
Growing Degree Days 24 (Base 50)    
Moisture  
Dew Point 64 °F    
Average Humidity 77    
Maximum Humidity 94    
Minimum Humidity 51    
Precipitation  
Precipitation 0.00 in 0.10 in 1.88 in (2007)
Month to date precipitation 1.97  
Year to date precipitation 22.14  
Snow  
Snow 0.00 in 0.00 in - ()
Month to date snowfall 0.0  
Since 1 June snowfall 0.0  
Since 1 July snowfall 0.0  
Snow Depth -    
Sea Level Pressure  
Sea Level Pressure 29.82 in    
Wind  
Wind Speed 4 mph (SSW)    
Max Wind Speed 13 mph    
Max Gust Speed 20 mph    
Visibility 10 miles    
Events Rain    
T = Trace of Precipitation, MM = Missing Value Source: NWS Daily Summary

Daily Weather History Graph

Daily Weather History Graph

Search for Another Location

Airport or City:

Trip Planner

Search our weather history database for the weather conditions in past years. The results will help you decide how hot, cold, wet, or windy it might be!

Date:

Astronomy

Aug. 19, 2014 Rise Set
Actual Time 6:47 AM EDT 8:28 PM EDT
Civil Twilight 6:17 AM EDT 8:58 PM EDT
Nautical Twilight 5:41 AM EDT 9:33 PM EDT
Astronomical Twilight 5:03 AM EDT 10:11 PM EDT
Moon 1:36 AM EDT (8/19) 4:25 PM EDT (8/19)
Length of Visible Light 14h 40m
Length of Day
13h 41m
Waning Crescent, 29% of the Moon is Illuminated
Aug 19
Waning Crescent
Aug 25
New
Sep 2
First Quarter
Sep 8
Full
Sep 15
Last Quarter

Hourly Weather History & Observations

Time (EDT) Temp. Heat Index Dew Point Humidity Pressure Visibility Wind Dir Wind Speed Gust Speed Precip Events Conditions
12:15 AM 66.2 °F - 60.8 °F 83% 29.86 in 10.0 mi ESE 3.5 mph - N/A   Mostly Cloudy
12:35 AM 66.2 °F - 60.8 °F 83% 29.86 in 10.0 mi SE 3.5 mph - N/A   Scattered Clouds
12:55 AM 66.2 °F - 60.8 °F 83% 29.86 in 10.0 mi Calm Calm - N/A   Clear
1:15 AM 64.4 °F - 60.8 °F 88% 29.86 in 10.0 mi Calm Calm - N/A   Scattered Clouds
1:35 AM 64.4 °F - 60.8 °F 88% 29.85 in 10.0 mi SE 3.5 mph - N/A   Mostly Cloudy
1:55 AM 64.4 °F - 60.8 °F 88% 29.85 in 10.0 mi SE 3.5 mph - N/A   Scattered Clouds
2:15 AM 64.4 °F - 60.8 °F 88% 29.84 in 10.0 mi Calm Calm - N/A   Clear
2:35 AM 64.4 °F - 60.8 °F 88% 29.84 in 10.0 mi Calm Calm - N/A   Clear
2:55 AM 62.6 °F - 60.8 °F 94% 29.84 in 7.0 mi Calm Calm - N/A   Clear
3:15 AM 62.6 °F - 60.8 °F 94% 29.83 in 7.0 mi Calm Calm - N/A   Mostly Cloudy
3:35 AM 62.6 °F - 60.8 °F 94% 29.82 in 10.0 mi SE 3.5 mph - N/A   Mostly Cloudy
3:55 AM 64.4 °F - 60.8 °F 88% 29.83 in 10.0 mi SSE 3.5 mph - N/A   Scattered Clouds
4:15 AM 64.4 °F - 59.0 °F 83% 29.83 in 10.0 mi Calm Calm - N/A   Scattered Clouds
4:35 AM 64.4 °F - 60.8 °F 88% 29.82 in 10.0 mi Calm Calm - N/A   Mostly Cloudy
4:55 AM 62.6 °F - 59.0 °F 88% 29.82 in 10.0 mi Calm Calm - N/A   Scattered Clouds
5:15 AM 62.6 °F - 59.0 °F 88% 29.83 in 10.0 mi Calm Calm - N/A   Mostly Cloudy
5:35 AM 62.6 °F - 60.8 °F 94% 29.82 in 10.0 mi SE 3.5 mph - N/A   Mostly Cloudy
5:55 AM 64.4 °F - 60.8 °F 88% 29.82 in 10.0 mi SSE 3.5 mph - N/A   Scattered Clouds
6:15 AM 64.4 °F - 59.0 °F 83% 29.82 in 10.0 mi SSE 4.6 mph - N/A   Clear
6:35 AM 64.4 °F - 59.0 °F 83% 29.83 in 10.0 mi SSE 3.5 mph - N/A   Clear
6:55 AM 64.4 °F - 60.8 °F 88% 29.83 in 10.0 mi South 3.5 mph - N/A   Clear
7:15 AM 64.4 °F - 60.8 °F 88% 29.83 in 10.0 mi South 5.8 mph - N/A   Clear
7:35 AM 66.2 °F - 60.8 °F 83% 29.83 in 10.0 mi South 4.6 mph - N/A   Clear
7:55 AM 68.0 °F - 60.8 °F 78% 29.84 in 10.0 mi SSW 3.5 mph - N/A   Clear
8:15 AM 68.0 °F - 60.8 °F 78% 29.83 in 10.0 mi South 4.6 mph - N/A   Mostly Cloudy
8:35 AM 68.0 °F - 60.8 °F 78% 29.84 in 10.0 mi South 4.6 mph - N/A   Mostly Cloudy
8:55 AM 69.8 °F - 60.8 °F 73% 29.83 in 10.0 mi South 6.9 mph - N/A   Mostly Cloudy
9:15 AM 71.6 °F - 62.6 °F 73% 29.83 in 10.0 mi SSW 6.9 mph - N/A   Mostly Cloudy
9:35 AM 71.6 °F - 62.6 °F 73% 29.84 in 10.0 mi SSW 4.6 mph - N/A   Mostly Cloudy
9:55 AM 73.4 °F - 64.4 °F 73% 29.84 in 10.0 mi SW 5.8 mph - N/A   Mostly Cloudy
10:15 AM 75.2 °F - 64.4 °F 69% 29.85 in 10.0 mi WSW 4.6 mph - N/A   Overcast
10:35 AM 75.2 °F - 66.2 °F 73% 29.84 in 10.0 mi South 5.8 mph - N/A   Mostly Cloudy
10:55 AM 77.0 °F - 68.0 °F 74% 29.84 in 10.0 mi WSW 4.6 mph - N/A   Clear
11:15 AM 78.8 °F - 68.0 °F 69% 29.85 in 10.0 mi SW 3.5 mph - N/A   Mostly Cloudy
11:35 AM 78.8 °F - 68.0 °F 69% 29.84 in 10.0 mi SSW 5.8 mph - N/A   Mostly Cloudy
11:55 AM 80.6 °F 83.2 °F 68.0 °F 65% 29.82 in 10.0 mi SW 5.8 mph - N/A   Scattered Clouds
12:15 PM 80.6 °F 83.2 °F 68.0 °F 65% 29.81 in 10.0 mi South 6.9 mph - N/A   Clear
12:35 PM 80.6 °F 83.2 °F 68.0 °F 65% 29.80 in 10.0 mi South 6.9 mph - N/A   Clear
12:55 PM 80.6 °F 83.2 °F 68.0 °F 65% 29.80 in 10.0 mi South 5.8 mph - N/A   Clear
1:15 PM 80.6 °F 83.2 °F 68.0 °F 65% 29.80 in 10.0 mi SSW 9.2 mph - N/A   Scattered Clouds
1:35 PM 82.4 °F 85.4 °F 68.0 °F 62% 29.80 in 10.0 mi SSW 8.1 mph - N/A   Scattered Clouds
1:55 PM 82.4 °F 85.4 °F 68.0 °F 62% 29.79 in 10.0 mi SW 9.2 mph - N/A   Scattered Clouds
2:15 PM 84.2 °F 87.3 °F 68.0 °F 58% 29.78 in 10.0 mi SSW 9.2 mph 17.3 mph N/A   Scattered Clouds
2:35 PM 84.2 °F 87.3 °F 68.0 °F 58% 29.78 in 10.0 mi SW 12.7 mph 17.3 mph N/A   Scattered Clouds
2:55 PM 84.2 °F 87.3 °F 68.0 °F 58% 29.77 in 10.0 mi South 11.5 mph 17.3 mph N/A   Scattered Clouds
3:15 PM 84.2 °F 86.6 °F 66.2 °F 55% 29.77 in 10.0 mi SW 10.4 mph 17.3 mph N/A   Scattered Clouds
3:35 PM 84.2 °F 86.6 °F 66.2 °F 55% 29.77 in 10.0 mi SSW 5.8 mph 17.3 mph N/A   Scattered Clouds
3:55 PM 86.0 °F 88.2 °F 66.2 °F 51% 29.77 in 10.0 mi SW 12.7 mph 18.4 mph N/A   Scattered Clouds
4:15 PM 82.4 °F 84.6 °F 66.2 °F 58% 29.77 in 10.0 mi SSW 11.5 mph - N/A   Mostly Cloudy
4:35 PM 84.2 °F 86.6 °F 66.2 °F 55% 29.76 in 10.0 mi SW 5.8 mph - N/A   Scattered Clouds
4:55 PM 84.2 °F 86.6 °F 66.2 °F 55% 29.76 in 10.0 mi SSW 8.1 mph 16.1 mph N/A   Scattered Clouds
5:15 PM 84.2 °F 86.6 °F 66.2 °F 55% 29.77 in 10.0 mi SW 8.1 mph 19.6 mph N/A   Scattered Clouds
5:35 PM 84.2 °F 86.6 °F 66.2 °F 55% 29.78 in 10.0 mi SW 8.1 mph - N/A   Scattered Clouds
5:55 PM 82.4 °F 84.6 °F 66.2 °F 58% 29.79 in 10.0 mi WSW 8.1 mph - N/A   Scattered Clouds
6:35 PM 68.0 °F - 62.6 °F 83% 29.86 in 1.8 mi NW 8.1 mph - N/A Rain Heavy Rain
6:55 PM 68.0 °F - 62.6 °F 83% 29.83 in 5.0 mi Calm Calm - N/A Rain Rain
7:15 PM 68.0 °F - 62.6 °F 83% 29.78 in 7.0 mi NW 3.5 mph - N/A Rain Rain
7:35 PM 68.0 °F - 64.4 °F 88% 29.78 in 10.0 mi South 3.5 mph - N/A Rain Light Rain
7:55 PM 68.0 °F - 64.4 °F 88% 29.79 in 10.0 mi SW 3.5 mph - N/A   Clear
8:15 PM 68.0 °F - 64.4 °F 88% 29.81 in 10.0 mi SSW 3.5 mph - N/A   Clear
8:35 PM 68.0 °F - 64.4 °F 88% 29.81 in 10.0 mi South 4.6 mph - N/A   Mostly Cloudy
8:55 PM 68.0 °F - 64.4 °F 88% 29.79 in 10.0 mi Calm Calm - N/A   Scattered Clouds
9:15 PM 68.0 °F - 64.4 °F 88% 29.80 in 7.0 mi SW 4.6 mph - N/A Rain Rain
9:35 PM 69.8 °F - 62.6 °F 78% 29.79 in 10.0 mi South 4.6 mph - N/A Rain Light Rain
9:55 PM 69.8 °F - 62.6 °F 78% 29.79 in 10.0 mi WSW 3.5 mph - N/A   Scattered Clouds
10:55 PM 68.0 °F - 64.4 °F 88% 29.82 in 10.0 mi SSE 3.5 mph - N/A   Mostly Cloudy
11:15 PM 68.0 °F - 64.4 °F 88% 29.82 in 10.0 mi Calm Calm - N/A   Scattered Clouds
11:35 PM 68.0 °F - 64.4 °F 88% 29.81 in 10.0 mi SSE 3.5 mph - N/A   Scattered Clouds
11:55 PM 68.0 °F - 64.4 °F 88% 29.81 in 7.0 mi South 4.6 mph - N/A   Mostly Cloudy